Weather History for Dyersburg, TN

Change the Weather History Date:

Wednesday, November 14, 2012

  Actual Average Record
Temperature  
Mean Temperature 42 °F -  
Max Temperature 48 °F 56 °F 77 °F (2011)
Min Temperature 35 °F 40 °F 24 °F (2013)
Degree Days  
Heating Degree Days 24    
Moisture  
Dew Point 24 °F    
Average Humidity 54    
Maximum Humidity 65    
Minimum Humidity 46    
Precipitation  
Precipitation 0.00 in - - ()
Sea Level Pressure  
Sea Level Pressure 30.40 in    
Wind  
Wind Speed 5 mph (NE)    
Max Wind Speed 12 mph    
Max Gust Speed -    
Visibility 10 miles    
Events      
Averages and records for this station are not official NWS values.
T = Trace of Precipitation, MM = Missing Value Source: NWS Daily Summary

Daily Weather History Graph

Daily Weather History Graph

Search for Another Location

Airport:

Trip Planner

Search our weather history database for the weather conditions in past years. The results will help you decide how hot, cold, wet, or windy it might be!

Date:

Astronomy

Nov. 14, 2012 Rise Set
Actual Time 6:33 AM CST 4:50 PM CST
Civil Twilight 6:06 AM CST 5:17 PM CST
Nautical Twilight 5:35 AM CST 5:48 PM CST
Astronomical Twilight 5:05 AM CST 6:18 PM CST
Moon 7:21 AM CST (11/14) 5:40 PM CST (11/14)
Length of Visible Light 11h 11m
Length of Day
10h 16m
New Moon, 1% of the Moon is Illuminated
Nov 14
New Moon
Nov 20
First Quarter
Nov 28
Full
Dec 6
Last Quarter
Dec 13
New

Hourly Weather History & Observations

Time (CST) Temp. Windchill Dew Point Humidity Pressure Visibility Wind Dir Wind Speed Gust Speed Precip Events Conditions
12:15 AM 37.4 °F 33.8 °F 21.2 °F 52% 30.43 in 10.0 mi NE 4.6 mph - N/A   Clear
12:35 AM 37.4 °F - 21.2 °F 52% 30.44 in 10.0 mi Calm Calm - N/A   Clear
12:55 AM 37.4 °F 33.8 °F 21.2 °F 52% 30.45 in 10.0 mi NNE 4.6 mph - N/A   Clear
1:15 AM 35.6 °F 31.7 °F 21.2 °F 56% 30.45 in 10.0 mi NNE 4.6 mph - N/A   Clear
1:35 AM 35.6 °F 32.8 °F 21.2 °F 56% 30.45 in 10.0 mi NE 3.5 mph - N/A   Clear
1:55 AM 35.6 °F 31.7 °F 21.2 °F 56% 30.45 in 10.0 mi NE 4.6 mph - N/A   Clear
2:15 AM 35.6 °F 30.7 °F 21.2 °F 56% 30.45 in 10.0 mi NNE 5.8 mph - N/A   Clear
2:55 AM 35.6 °F 30.7 °F 21.2 °F 56% 30.44 in 10.0 mi NE 5.8 mph - N/A   Clear
3:15 AM 35.6 °F 30.7 °F 21.2 °F 56% 30.44 in 10.0 mi NNE 5.8 mph - N/A   Clear
3:35 AM 35.6 °F 31.7 °F 21.2 °F 56% 30.44 in 10.0 mi NNE 4.6 mph - N/A   Clear
3:55 AM 35.6 °F 29.9 °F 21.2 °F 56% 30.43 in 10.0 mi NE 6.9 mph - N/A   Clear
4:15 AM 35.6 °F 31.7 °F 21.2 °F 56% 30.43 in 10.0 mi ENE 4.6 mph - N/A   Clear
4:35 AM 35.6 °F 32.8 °F 21.2 °F 56% 30.43 in 10.0 mi NE 3.5 mph - N/A   Clear
4:55 AM 35.6 °F 32.8 °F 21.2 °F 56% 30.44 in 10.0 mi NE 3.5 mph - N/A   Clear
5:15 AM 35.6 °F 31.7 °F 21.2 °F 56% 30.44 in 10.0 mi NE 4.6 mph - N/A   Clear
5:35 AM 35.6 °F 31.7 °F 21.2 °F 56% 30.44 in 10.0 mi NE 4.6 mph - N/A   Clear
5:56 AM 35.6 °F 31.7 °F 21.2 °F 56% 30.44 in 10.0 mi NE 4.6 mph - N/A   Clear
6:15 AM 35.6 °F 30.7 °F 21.2 °F 56% 30.44 in 10.0 mi NE 5.8 mph - N/A   Clear
6:35 AM 35.6 °F 29.9 °F 21.2 °F 56% 30.44 in 10.0 mi ENE 6.9 mph - N/A   Clear
7:15 AM 35.6 °F 31.7 °F 21.2 °F 56% 30.46 in 10.0 mi NE 4.6 mph - N/A   Clear
7:35 AM 35.6 °F 31.7 °F 21.2 °F 56% 30.46 in 10.0 mi NE 4.6 mph - N/A   Clear
7:55 AM 37.4 °F 32.1 °F 23.0 °F 56% 30.45 in 10.0 mi ENE 6.9 mph - N/A   Clear
8:16 AM 37.4 °F 32.8 °F 23.0 °F 56% 30.45 in 10.0 mi NE 5.8 mph - N/A   Clear
8:35 AM 39.2 °F 33.6 °F 24.8 °F 56% 30.45 in 7.0 mi ENE 8.1 mph - N/A   Clear
8:55 AM 39.2 °F 34.2 °F 24.8 °F 56% 30.44 in 10.0 mi NE 6.9 mph - N/A   Clear
9:35 AM 41.0 °F 37.1 °F 24.8 °F 53% 30.45 in 10.0 mi ENE 5.8 mph - N/A   Clear
9:55 AM 42.8 °F 39.3 °F 24.8 °F 49% 30.45 in 10.0 mi ENE 5.8 mph - N/A   Clear
10:15 AM 42.8 °F 37.5 °F 24.8 °F 49% 30.45 in 10.0 mi NNE 9.2 mph - N/A   Clear
10:35 AM 42.8 °F 38.0 °F 24.8 °F 49% 30.43 in 10.0 mi NE 8.1 mph - N/A   Partly Cloudy
10:55 AM 42.8 °F 37.5 °F 26.6 °F 53% 30.42 in 10.0 mi NE 9.2 mph - N/A   Scattered Clouds
11:15 AM 44.6 °F 39.7 °F 26.6 °F 49% 30.41 in 10.0 mi NE 9.2 mph - N/A   Mostly Cloudy
11:55 AM 44.6 °F 40.2 °F 26.6 °F 49% 30.41 in 10.0 mi NE 8.1 mph - N/A   Clear
12:35 PM 46.4 °F 42.4 °F 26.6 °F 46% 30.40 in 10.0 mi NE 8.1 mph - N/A   Mostly Cloudy
12:55 PM 46.4 °F 42.4 °F 26.6 °F 46% 30.38 in 10.0 mi NNE 8.1 mph - N/A   Mostly Cloudy
1:15 PM 46.4 °F 41.1 °F 26.6 °F 46% 30.37 in 10.0 mi NE 11.5 mph - N/A   Overcast
1:35 PM 46.4 °F 41.5 °F 28.4 °F 50% 30.36 in 10.0 mi North 10.4 mph - N/A   Scattered Clouds
1:55 PM 46.4 °F 41.9 °F 28.4 °F 50% 30.37 in 10.0 mi North 9.2 mph - N/A   Partly Cloudy
2:15 PM 46.4 °F 42.4 °F 28.4 °F 50% 30.37 in 10.0 mi North 8.1 mph - N/A   Partly Cloudy
2:36 PM 48.2 °F - 28.4 °F 46% 30.36 in 10.0 mi NNE 8.1 mph - N/A   Clear
2:55 PM 48.2 °F - 28.4 °F 46% 30.37 in 10.0 mi North 9.2 mph - N/A   Clear
3:35 PM 48.2 °F - 30.2 °F 50% 30.36 in 10.0 mi NNE 11.5 mph - N/A   Clear
3:55 PM 46.4 °F 41.5 °F 28.4 °F 50% 30.37 in 10.0 mi NNE 10.4 mph - N/A   Clear
4:15 PM 46.4 °F 41.9 °F 28.4 °F 50% 30.36 in 10.0 mi NNE 9.2 mph - N/A   Clear
4:36 PM 44.6 °F 40.2 °F 28.4 °F 53% 30.35 in 10.0 mi NNE 8.1 mph - N/A   Clear
4:55 PM 44.6 °F 41.4 °F 26.6 °F 49% 30.36 in 10.0 mi NE 5.8 mph - N/A   Clear
5:15 PM 42.8 °F 39.3 °F 26.6 °F 53% 30.36 in 10.0 mi NNE 5.8 mph - N/A   Clear
5:55 PM 42.8 °F 39.3 °F 26.6 °F 53% 30.36 in 10.0 mi NNE 5.8 mph - N/A   Clear
6:15 PM 42.8 °F 40.1 °F 26.6 °F 53% 30.37 in 10.0 mi NNE 4.6 mph - N/A   Clear
6:35 PM 41.0 °F 37.1 °F 26.6 °F 57% 30.37 in 10.0 mi North 5.8 mph - N/A   Clear
6:55 PM 41.0 °F 39.0 °F 26.6 °F 57% 30.37 in 10.0 mi North 3.5 mph - N/A   Clear
7:15 PM 39.2 °F 37.0 °F 24.8 °F 56% 30.37 in 10.0 mi NNE 3.5 mph - N/A   Clear
7:35 PM 39.2 °F 35.0 °F 24.8 °F 56% 30.36 in 10.0 mi NNE 5.8 mph - N/A   Clear
7:56 PM 41.0 °F 38.0 °F 24.8 °F 53% 30.37 in 10.0 mi NNE 4.6 mph - N/A   Clear
8:15 PM 39.2 °F 35.0 °F 24.8 °F 56% 30.36 in 10.0 mi NE 5.8 mph - N/A   Clear
8:35 PM 39.2 °F 35.9 °F 24.8 °F 56% 30.37 in 10.0 mi NE 4.6 mph - N/A   Clear
9:15 PM 39.2 °F 35.0 °F 24.8 °F 56% 30.36 in 10.0 mi NE 5.8 mph - N/A   Clear
9:35 PM 39.2 °F 37.0 °F 24.8 °F 56% 30.36 in 10.0 mi NE 3.5 mph - N/A   Clear
9:55 PM 39.2 °F 37.0 °F 24.8 °F 56% 30.36 in 10.0 mi NE 3.5 mph - N/A   Clear
10:16 PM 37.4 °F 33.8 °F 24.8 °F 60% 30.36 in 10.0 mi NE 4.6 mph - N/A   Clear
10:35 PM 37.4 °F 32.8 °F 24.8 °F 60% 30.35 in 10.0 mi NE 5.8 mph - N/A   Clear
10:56 PM 37.4 °F 33.8 °F 24.8 °F 60% 30.35 in 10.0 mi NE 4.6 mph - N/A   Clear
11:35 PM 35.6 °F 31.7 °F 24.8 °F 65% 30.35 in 10.0 mi NE 4.6 mph - N/A   Clear